Overview Statistics Trail Chart Weather Telemetry Raw packets
 

This is the latest recevied weather packets stored in our database for station/object PY5TG-13. If no packets are shown the sender has not sent any weather packets the latest 10 day(s).

<< 16 17 18 19 20 21 22 >>
Time Temp. Humidity Pressure Rain* Wind** Luminosity Snow
1788459072 23.33° C 42% 1011.3 hPa 0 mm - 249 W/m² -
1788459007 23.33° C 44% 1011.5 hPa 0 mm - 261 W/m² -
1788458414 22.78° C 44% 1011.6 hPa 0 mm - 278 W/m² -
1788457872 22.78° C 45% 1011.7 hPa 0 mm - 287 W/m² -
1788457808 22.78° C 45% 1011.8 hPa 0 mm - 296 W/m² -
1788457212 22.78° C 46% 1011.9 hPa 0 mm - 310 W/m² -
1788456612 22.78° C 46% 1012.2 hPa 0 mm - 324 W/m² -
1788456072 22.78° C 47% 1012.2 hPa 0 mm - 332 W/m² -
1788456007 22.22° C 48% 1012.3 hPa 0 mm - 339 W/m² -
1788455414 22.78° C 47% 1012.3 hPa 0 mm - 352 W/m² -
1788454872 22.78° C 46% 1012.4 hPa 0 mm - 359 W/m² -
1788454807 22.78° C 45% 1012.4 hPa 0 mm - 366 W/m² -
1788454212 22.78° C 44% 1012.7 hPa 0 mm - 378 W/m² -
1788453614 23.33° C 44% 1012.8 hPa 0 mm - 387 W/m² -
1788453013 22.22° C 45% 1013 hPa 0 mm - 394 W/m² -
1788452413 22.22° C 43% 1013.1 hPa 0 mm - 404 W/m² -
1788451872 22.22° C 42% 1013.2 hPa 0 mm - 408 W/m² -
1788451214 22.22° C 43% 1013.4 hPa 0 mm - 416 W/m² -
1788450611 22.78° C 43% 1013.3 hPa 0 mm - 421 W/m² -
1788450012 21.67° C 42% 1013.5 hPa 0 mm - 424 W/m² -
1788449471 22.22° C 42% 1013.7 hPa 0 mm - 426 W/m² -
1788449407 21.67° C 40% 1013.7 hPa 0 mm - 427 W/m² -
1788448813 21.67° C 37% 1013.9 hPa 0 mm - 427 W/m² -
1788448274 21.67° C 40% 1014.1 hPa 0 mm - 426 W/m² -
1788448208 21.11° C 40% 1014.1 hPa 0 mm - 426 W/m² -

* Rain latest hour (hover to see other rain measurements)
** Current wind speed in m/s (hover to see current wind gust speed)